Wind_Speed
49 43 36 35 31 26 25 25 28 28 30 33 33 35 36 35 35 33 36 38 40 42 44 47 49 52 52 51 49 49 51 50 52 56 58 60 57 51 47 51 56 59 62 65 69
47 40 37 30 28 28 30 31 32 34 37 36 35 34 38 38 35 36 35 40 44 42 48 50 51 54 54 52 51 51 52 52 57 62 63 58 56 56 56 56 57 57 61 65 73
47 42 38 34 31 30 36 36 36 36 36 35 36 38 37 37 36 34 37 42 44 44 47 48 52 56 57 54 51 54 54 56 60 64 61 56 58 63 66 69 63 62 68 66 72
53 47 40 40 41 40 37 36 36 37 38 37 38 38 40 39 38 38 39 42 44 46 47 52 56 58 57 53 53 55 56 59 62 62 56 55 62 70 68 73 66 64 62 61 69
56 50 45 42 44 42 41 41 40 41 40 40 39 38 38 38 39 40 43 44 43 44 51 55 58 58 58 53 53 55 57 57 59 56 53 59 68 70 74 72 67 65 59 59 64
56 52 49 49 49 44 44 43 41 41 41 40 38 38 38 39 39 41 44 46 49 51 53 58 58 58 55 52 54 55 53 54 53 55 56 61 66 74 70 66 62 58 51 51 53
56 55 52 50 47 43 42 40 39 41 39 37 38 40 39 41 42 43 47 50 47 50 55 53 57 56 52 51 53 52 48 50 55 58 64 61 67 65 64 59 57 50 41 42 35
56 55 53 50 46 45 42 42 40 41 40 41 41 41 41 44 45 47 44 45 48 53 52 56 55 53 50 50 50 42 46 51 59 61 62 70 62 58 58 60 46 46 50 42 28
55 55 53 51 48 49 46 46 45 43 43 43 44 44 45 45 46 47 48 48 50 51 53 54 54 52 49 46 35 41 47 52 57 61 58 57 58 55 54 56 39 43 49 33 21
54 55 55 54 53 54 49 46 45 42 44 46 46 47 47 45 46 46 47 48 51 54 53 51 50 47 44 31 32 40 48 52 55 52 52 57 51 51 52 52 39 38 40 26 14
46 45 47 52 56 54 49 47 47 45 46 45 47 47 47 47 49 50 51 49 49 49 49 48 43 40 25 28 34 41 44 45 51 51 58 45 45 47 48 49 39 37 30 18 15
48 46 43 42 47 49 47 46 45 46 49 49 50 51 49 48 51 49 48 48 45 46 45 40 36 19 19 23 27 32 41 51 59 46 41 38 42 43 46 48 38 30 27 18 15
53 50 45 44 43 46 49 49 46 46 50 48 45 41 40 41 43 45 46 44 44 39 36 29 17 14 18 25 27 31 38 44 46 41 34 35 39 41 39 43 34 29 22 17 15
50 52 48 46 42 33 29 33 34 30 30 30 30 32 36 40 43 43 40 37 35 29 16 13 14 17 22 23 26 29 32 36 37 33 30 31 35 38 35 40 30 26 15 15 15
53 50 51 45 41 38 36 34 34 32 33 32 31 34 36 35 35 31 30 31 20 11 15 18 21 14 18 20 24 25 33 35 35 30 28 28 32 35 36 36 30 19 8 12 13
56 51 47 47 46 42 37 38 38 36 37 37 36 36 29 28 29 27 21 18 16 15 21 19 21 24 18 15 22 24 30 33 39 35 29 27 27 30 31 32 32 16 5 3 13
60 55 49 49 48 46 45 42 36 39 38 38 34 31 25 22 24 22 10 10 16 18 21 19 17 13 12 10 23 26 27 33 38 41 38 27 25 28 25 25 31 19 7 8 19
64 59 54 51 51 50 47 40 38 36 37 35 34 28 28 25 22 14 10 12 8 10 20 25 13 19 18 17 22 30 26 29 38 44 44 36 26 25 25 22 25 27 7 13 24
67 65 59 54 50 46 45 42 40 36 34 35 30 34 33 24 15 15 18 16 13 17 22 21 29 26 18 19 19 24 27 33 31 35 45 45 48 38 27 22 19 22 18 12 30
69 67 62 57 51 49 46 45 41 37 38 36 33 33 30 18 21 15 17 16 15 21 25 28 34 35 30 29 24 26 26 27 32 35 36 44 49 46 49 29 16 16 15 11 22
67 65 62 56 52 50 47 46 41 38 39 38 36 34 34 31 19 24 20 23 22 24 28 31 37 39 32 31 31 31 24 27 33 29 34 41 47 44 51 46 37 13 15 15 13
69 63 61 57 54 51 51 47 44 41 42 40 40 40 35 35 20 22 27 22 27 26 31 33 39 43 40 39 33 34 30 30 30 33 30 34 40 47 53 52 51 41 14 16 17
68 62 60 57 54 53 52 46 44 43 43 41 44 43 39 35 25 26 28 27 29 31 32 35 36 39 39 37 36 34 36 34 21 29 31 34 36 41 45 53 53 52 50 29 18
69 64 60 56 51 52 49 47 46 44 43 45 44 45 43 39 29 25 34 34 31 32 33 37 33 31 35 41 40 35 40 41 35 26 32 34 33 35 39 44 47 53 55 53 58
65 63 60 55 54 56 52 48 47 47 46 46 44 50 45 41 29 30 34 32 26 31 33 33 37 34 39 33 34 42 41 45 42 36 33 35 35 36 35 39 40 48 53 58 60
63 58 60 62 62 56 49 47 51 51 48 49 49 43 45 44 37 36 33 34 38 27 33 34 36 43 43 32 35 35 39 42 43 32 35 41 40 40 37 36 41 47 50 47 63
71 60 63 63 61 57 51 55 55 54 52 51 45 47 49 51 47 43 42 47 39 27 28 35 41 41 37 36 31 40 39 39 39 44 35 36 41 43 41 40 40 46 53 47 50
Wind_Direction
275 283 285 285 284 268 264 273 286 287 291 292 289 289 288 293 296 299 305 307 308 310 313 317 321 325 329 327 320 316 314 313 315 317 313 309 307 307 304 299 290 275 267 265 259
271 278 277 279 279 267 265 273 281 287 291 291 284 286 287 289 293 296 300 306 306 310 314 315 318 324 327 326 318 314 314 315 316 316 316 313 311 310 306 301 298 281 270 264 256
271 274 273 272 274 266 265 272 278 283 289 289 285 284 286 290 290 296 303 304 306 309 312 317 320 323 326 323 318 315 315 315 316 319 316 316 316 312 311 316 311 300 289 271 259
268 271 268 267 275 276 270 268 275 281 284 283 281 282 283 287 292 297 303 305 304 305 311 320 318 321 324 320 317 317 316 316 317 316 318 322 322 318 315 317 311 305 292 280 264
266 267 265 263 271 273 274 273 275 277 280 278 278 280 285 288 294 293 299 303 301 305 316 317 316 320 321 319 316 316 316 314 315 315 320 321 319 317 317 316 316 308 302 290 278
260 262 264 264 270 270 272 272 273 275 276 275 275 279 284 287 293 296 296 298 299 309 313 312 315 320 318 317 315 315 315 313 313 315 317 321 320 316 319 320 320 314 307 297 285
257 260 261 264 266 269 270 269 272 272 273 275 278 279 282 285 290 293 294 296 302 307 309 312 317 318 316 315 313 315 317 313 312 316 320 323 319 319 325 329 329 318 322 318 302
254 256 258 263 262 263 265 268 269 267 270 274 278 280 282 286 289 294 297 299 303 305 309 316 317 313 314 312 315 320 314 313 319 321 321 319 319 324 329 336 332 335 339 336 326
251 251 255 259 259 264 266 265 268 265 272 279 278 282 284 287 287 290 295 300 302 306 312 313 312 310 312 315 321 316 315 315 320 323 328 325 325 330 336 340 335 344 341 341 344
253 254 255 257 260 262 265 267 265 266 275 278 278 280 282 282 291 297 300 301 303 305 308 309 307 310 314 316 320 316 319 319 327 336 332 332 328 335 343 343 336 342 348 350 12
254 254 254 258 260 261 262 262 266 270 273 275 276 279 284 292 296 300 300 300 302 305 304 302 305 311 308 325 308 311 314 324 328 334 332 332 332 343 346 346 349 352 356 8 54
253 254 257 264 261 259 259 263 263 270 272 274 277 286 289 292 293 294 295 297 299 299 299 302 307 303 329 326 328 323 324 323 326 332 338 340 340 348 349 352 353 357 2 27 76
256 255 256 260 263 263 261 265 271 273 272 276 284 285 289 292 292 292 293 296 296 299 301 303 291 320 326 322 333 339 334 329 332 339 348 348 346 353 353 351 357 0 3 44 87
253 255 256 258 258 258 254 263 273 279 277 282 286 292 292 289 288 290 291 293 296 300 295 285 309 325 312 327 342 351 348 346 346 351 2 356 348 358 353 353 356 353 353 60 95
250 253 255 255 251 252 257 267 273 277 281 282 288 296 300 293 288 287 290 293 294 281 325 332 327 315 321 343 359 360 5 16 6 5 13 12 353 1 354 354 3 357 349 81 106
248 249 249 251 254 251 261 272 273 274 277 282 290 303 294 287 280 285 289 298 283 289 323 328 312 313 321 353 9 16 18 25 26 23 28 26 6 5 360 357 11 358 345 148 128
247 246 246 248 250 254 265 266 272 272 278 280 291 296 282 283 282 281 278 297 325 340 337 330 312 354 8 18 24 23 30 30 29 27 31 30 21 16 11 359 360 4 319 205 151
245 246 245 248 249 255 260 259 264 268 279 280 287 274 287 284 279 251 246 294 348 6 352 353 347 1 8 13 29 27 34 35 44 37 35 41 33 20 23 13 1 11 302 219 189
243 246 245 245 247 251 255 257 257 271 272 274 282 274 279 283 263 254 253 267 304 315 324 338 356 13 4 15 17 17 17 24 34 31 32 38 43 37 18 26 7 11 359 243 210
244 245 245 243 245 249 252 256 256 266 269 269 279 268 270 285 262 266 269 273 286 304 307 322 315 333 349 5 16 3 6 4 9 25 25 25 37 40 37 27 20 357 0 309 235
243 244 244 239 242 247 250 251 256 261 262 268 268 263 264 267 284 264 267 279 289 297 303 307 313 321 337 353 4 9 12 349 3 0 13 24 24 31 37 33 29 4 338 328 282
241 241 241 242 242 245 247 246 252 254 261 263 259 260 257 259 285 285 265 272 279 286 299 305 314 317 319 327 336 354 355 349 6 13 6 9 15 14 27 30 32 31 358 310 301
233 235 239 242 240 243 242 245 248 254 257 264 258 254 255 258 276 291 284 280 279 283 289 296 304 313 311 310 333 347 355 355 346 5 5 1 357 9 14 20 21 26 30 26 293
230 236 245 244 242 239 238 244 243 252 254 262 255 251 248 252 261 277 285 276 276 279 280 288 297 320 316 308 300 317 333 347 352 333 356 12 348 359 0 8 9 11 14 16 22
230 238 243 241 234 232 239 237 246 245 253 258 251 246 247 246 250 264 278 272 272 297 276 275 295 296 340 318 303 299 304 324 340 324 346 351 1 351 358 357 357 2 3 4 3
228 235 240 236 231 235 237 242 243 246 252 257 249 245 240 239 245 256 263 270 258 286 278 269 303 280 292 318 311 317 324 316 324 342 321 340 348 341 346 354 357 352 353 350 1
236 236 237 234 235 235 244 239 243 242 248 255 246 242 238 239 243 246 257 264 264 276 285 275 282 288 284 320 308 310 331 314 311 329 342 331 333 338 340 343 349 343 343 349 344
Height
10787 10790 10790 10791 10793 10794 10794 10794 10794 10793 10791 10791 10789 10788 10786 10785 10783 10780 10778 10775 10772 10769 10764 10760 10755 10750 10743 10736 10729 10723 10717 10710 10703 10697 10691 10683 10673 10668 10663 10652 10643 10639 10638 10639 10633
10780 10783 10784 10785 10786 10788 10788 10788 10788 10788 10787 10785 10783 10782 10781 10779 10777 10775 10771 10769 10765 10762 10758 10753 10748 10742 10735 10728 10721 10714 10707 10700 10693 10685 10678 10669 10660 10651 10641 10634 10624 10616 10610 10609 10604
10772 10774 10777 10778 10780 10781 10781 10782 10781 10781 10780 10779 10778 10776 10774 10773 10771 10768 10766 10762 10759 10755 10751 10746 10740 10735 10727 10719 10712 10704 10697 10690 10682 10673 10664 10656 10647 10636 10624 10612 10604 10592 10576 10576 10575
10763 10766 10768 10770 10772 10773 10774 10774 10774 10774 10773 10772 10771 10770 10768 10766 10765 10762 10758 10755 10752 10749 10744 10738 10732 10726 10719 10711 10703 10695 10688 10679 10670 10661 10652 10644 10634 10621 10608 10596 10585 10571 10555 10548 10544
10753 10756 10759 10761 10763 10765 10766 10767 10766 10766 10765 10765 10764 10763 10762 10761 10758 10755 10752 10749 10745 10741 10737 10731 10725 10718 10711 10703 10694 10686 10678 10669 10659 10651 10644 10634 10621 10607 10594 10583 10567 10549 10537 10526 10516
10743 10746 10750 10752 10754 10756 10757 10758 10758 10758 10758 10758 10756 10756 10754 10754 10752 10749 10746 10742 10738 10734 10729 10724 10718 10711 10703 10695 10686 10676 10668 10658 10649 10642 10633 10624 10610 10593 10580 10570 10553 10533 10519 10508 10495
10732 10736 10739 10742 10744 10746 10748 10749 10749 10750 10750 10750 10749 10748 10747 10746 10744 10742 10739 10735 10731 10727 10722 10717 10710 10703 10695 10687 10678 10669 10659 10649 10641 10635 10624 10614 10600 10583 10570 10559 10540 10520 10506 10493 10484
10720 10725 10729 10732 10735 10737 10739 10740 10741 10742 10743 10742 10742 10741 10740 10738 10736 10734 10731 10727 10723 10720 10715 10709 10702 10695 10688 10679 10671 10661 10651 10643 10635 10625 10615 10602 10588 10575 10560 10549 10533 10514 10498 10483 10474
10710 10715 10719 10722 10725 10728 10730 10731 10733 10734 10735 10734 10734 10734 10733 10731 10729 10727 10723 10719 10716 10712 10707 10702 10694 10687 10681 10673 10664 10654 10645 10637 10629 10619 10605 10591 10577 10565 10555 10543 10530 10514 10499 10484 10472
10699 10704 10708 10712 10715 10719 10721 10723 10724 10726 10727 10726 10726 10726 10726 10723 10720 10718 10715 10712 10708 10704 10700 10694 10687 10680 10675 10666 10659 10649 10640 10630 10623 10611 10599 10585 10572 10562 10550 10539 10526 10513 10499 10486 10476
10690 10693 10697 10701 10705 10708 10711 10714 10717 10717 10718 10718 10718 10717 10716 10714 10712 10710 10707 10704 10701 10697 10692 10686 10680 10675 10667 10661 10654 10645 10635 10626 10617 10606 10595 10581 10570 10559 10548 10537 10526 10513 10501 10495 10488
10680 10683 10687 10691 10695 10699 10703 10706 10708 10709 10710 10709 10709 10708 10708 10706 10704 10702 10700 10697 10693 10689 10684 10679 10674 10669 10662 10658 10650 10641 10631 10620 10612 10602 10591 10580 10569 10561 10548 10537 10528 10518 10510 10505 10502
10669 10674 10678 10682 10686 10690 10694 10697 10699 10700 10702 10701 10701 10700 10699 10698 10696 10694 10692 10689 10685 10682 10677 10672 10669 10664 10660 10655 10647 10637 10626 10616 10607 10598 10588 10578 10569 10564 10554 10543 10536 10528 10522 10515 10514
10658 10663 10668 10674 10677 10681 10684 10688 10690 10692 10693 10694 10693 10693 10692 10690 10689 10686 10684 10682 10679 10675 10672 10669 10666 10662 10658 10652 10644 10635 10623 10613 10604 10595 10588 10578 10569 10566 10556 10547 10540 10536 10533 10525 10525
10648 10653 10659 10664 10668 10674 10677 10680 10683 10685 10686 10687 10686 10686 10684 10682 10681 10679 10677 10675 10673 10672 10670 10667 10662 10658 10655 10649 10641 10632 10622 10612 10602 10593 10586 10579 10570 10566 10559 10551 10544 10540 10539 10535 10534
10636 10642 10648 10652 10658 10664 10668 10672 10676 10678 10679 10679 10679 10679 10677 10676 10675 10674 10672 10671 10671 10670 10666 10663 10660 10656 10650 10645 10638 10629 10622 10613 10604 10594 10584 10579 10572 10568 10562 10556 10551 10545 10545 10544 10543
10624 10631 10636 10642 10648 10653 10659 10663 10667 10669 10672 10672 10672 10672 10672 10670 10669 10669 10668 10669 10667 10664 10663 10661 10657 10651 10646 10642 10636 10628 10621 10615 10607 10599 10587 10579 10573 10569 10564 10559 10554 10552 10551 10551 10549
10611 10619 10624 10631 10638 10644 10649 10654 10658 10660 10663 10664 10665 10665 10665 10665 10664 10663 10664 10664 10662 10661 10660 10658 10654 10650 10644 10639 10633 10629 10622 10615 10609 10602 10592 10582 10575 10568 10565 10560 10557 10555 10554 10556 10556
10598 10607 10613 10620 10627 10634 10640 10645 10647 10650 10654 10657 10658 10659 10660 10660 10659 10658 10659 10659 10658 10657 10656 10654 10652 10648 10640 10636 10632 10627 10622 10616 10608 10602 10595 10588 10579 10574 10567 10565 10561 10559 10557 10557 10558
10584 10594 10601 10610 10617 10625 10630 10633 10636 10641 10645 10647 10650 10652 10653 10654 10655 10654 10655 10655 10654 10653 10651 10650 10648 10647 10643 10635 10629 10623 10619 10615 10611 10603 10597 10591 10583 10576 10572 10567 10564 10561 10560 10558 10558
10570 10581 10590 10599 10607 10615 10619 10622 10626 10630 10634 10638 10641 10643 10645 10648 10647 10649 10649 10649 10649 10648 10647 10646 10643 10642 10639 10635 10628 10622 10616 10611 10608 10604 10598 10592 10587 10580 10572 10568 10565 10563 10558 10558 10557
10559 10569 10577 10587 10597 10604 10605 10610 10615 10620 10624 10627 10632 10635 10637 10639 10640 10641 10642 10642 10643 10644 10642 10641 10640 10636 10634 10630 10627 10621 10615 10610 10606 10600 10596 10592 10587 10582 10575 10570 10567 10563 10560 10557 10556
10544 10552 10564 10575 10587 10591 10593 10599 10604 10609 10614 10618 10621 10625 10628 10630 10631 10632 10634 10635 10636 10637 10637 10635 10635 10632 10629 10626 10623 10621 10614 10609 10603 10598 10594 10589 10586 10581 10577 10571 10566 10564 10562 10560 10556
10528 10542 10555 10567 10576 10578 10582 10587 10593 10598 10603 10607 10610 10615 10619 10621 10622 10623 10626 10628 10629 10629 10630 10629 10629 10627 10625 10620 10616 10616 10612 10607 10603 10596 10591 10588 10583 10579 10574 10570 10566 10562 10559 10555 10553
10516 10532 10546 10557 10561 10560 10567 10577 10582 10586 10590 10595 10599 10603 10608 10611 10613 10615 10618 10619 10620 10620 10621 10622 10621 10621 10618 10613 10609 10608 10607 10604 10597 10595 10590 10585 10581 10574 10571 10567 10563 10560 10556 10551 10548
10505 10521 10529 10535 10537 10549 10560 10566 10569 10573 10579 10584 10587 10593 10598 10601 10603 10605 10609 10611 10611 10613 10612 10613 10613 10611 10611 10608 10604 10602 10602 10598 10596 10589 10583 10581 10577 10572 10566 10563 10559 10554 10552 10548 10544
10494 10507 10511 10522 10529 10539 10550 10549 10554 10561 10567 10571 10579 10583 10587 10588 10591 10594 10597 10600 10603 10603 10604 10604 10605 10602 10603 10602 10599 10596 10593 10591 10586 10585 10579 10574 10573 10568 10564 10557 10554 10550 10546 10542 10537